ITY1773 LIML-LICJ

Flight info

Callsign ITY1773
Flight time N/A
Altitude 37000
Route LOGDI DCT LOMED DCT LURON
Aircraft A319/M-SDE3FGHIRWY/LB1

Departure

Time N/A
Airport Milano Linate Airport (LIML)

Arrival

Time 2026-05-01 08:02
Airport Falcone–Borsellino Airport (LICJ)
Time Latitude Longitude Altitude Speed Heading
2026-05-01 07:23 41.84622 11.93824 37294 ft 497 kts 165°
2026-05-01 07:24 41.74707 11.97908 37294 ft 496 kts 166°
2026-05-01 07:24 41.69214 12.00169 37288 ft 497 kts 166°
2026-05-01 07:25 41.62601 12.02881 37273 ft 497 kts 166°
2026-05-01 07:25 41.55996 12.05584 37246 ft 496 kts 166°
2026-05-01 07:26 41.48329 12.08717 37247 ft 496 kts 166°
2026-05-01 07:26 41.42806 12.10979 37247 ft 495 kts 166°
2026-05-01 07:27 41.36217 12.13668 37248 ft 495 kts 166°
2026-05-01 07:27 41.29629 12.16335 37229 ft 495 kts 167°
2026-05-01 07:28 41.23033 12.19004 37226 ft 495 kts 166°
2026-05-01 07:28 41.16441 12.21678 37230 ft 495 kts 166°
2026-05-01 07:29 41.09892 12.24319 37220 ft 496 kts 167°
2026-05-01 07:29 41.03284 12.26979 37225 ft 496 kts 167°
2026-05-01 07:30 40.96673 12.29640 37227 ft 497 kts 167°
2026-05-01 07:30 40.90056 12.32299 37230 ft 497 kts 167°
2026-05-01 07:31 40.83437 12.34949 37213 ft 497 kts 168°
2026-05-01 07:32 40.66868 12.41546 37221 ft 498 kts 168°
2026-05-01 07:33 40.56929 12.45498 37226 ft 497 kts 168°
2026-05-01 07:33 40.46994 12.49437 37231 ft 497 kts 168°
2026-05-01 07:34 40.37061 12.53349 37221 ft 497 kts 168°
2026-05-01 07:35 40.30444 12.55957 37229 ft 497 kts 168°
2026-05-01 07:35 40.23828 12.58561 37232 ft 496 kts 168°
2026-05-01 07:36 40.17212 12.61151 37224 ft 496 kts 169°
2026-05-01 07:36 40.10652 12.63715 37232 ft 495 kts 169°
2026-05-01 07:37 40.00717 12.67584 37236 ft 494 kts 169°
2026-05-01 07:37 39.94173 12.70144 37232 ft 494 kts 169°
2026-05-01 07:38 39.87585 12.72708 37231 ft 494 kts 169°
2026-05-01 07:38 39.80974 12.75259 36174 ft 502 kts 169°
2026-05-01 07:39 39.77598 12.76551 35228 ft 509 kts 170°
2026-05-01 07:39 39.74181 12.77868 34212 ft 515 kts 170°
2026-05-01 07:39 39.67285 12.80549 32610 ft 513 kts 170°
2026-05-01 07:40 39.63882 12.81879 31907 ft 509 kts 171°
2026-05-01 07:40 39.60499 12.83190 31244 ft 505 kts 171°
2026-05-01 07:40 39.57142 12.84479 30583 ft 501 kts 171°
2026-05-01 07:40 39.53813 12.85757 29874 ft 497 kts 171°
2026-05-01 07:41 39.50519 12.87023 29255 ft 489 kts 171°
2026-05-01 07:41 39.47273 12.88270 28597 ft 484 kts 170°
2026-05-01 07:41 39.40883 12.90710 27371 ft 474 kts 170°
2026-05-01 07:42 39.37737 12.91910 26785 ft 469 kts 170°
2026-05-01 07:42 39.34625 12.93099 26215 ft 464 kts 169°
2026-05-01 07:42 39.31549 12.94280 25670 ft 459 kts 169°
2026-05-01 07:42 39.28502 12.95446 25111 ft 454 kts 169°
2026-05-01 07:43 39.25486 12.96594 24587 ft 450 kts 169°
2026-05-01 07:43 39.22494 12.97732 24052 ft 447 kts 168°
2026-05-01 07:43 39.16565 12.99981 22912 ft 441 kts 168°
2026-05-01 07:44 39.10715 13.02199 21814 ft 436 kts 168°
2026-05-01 07:44 39.04946 13.04385 20796 ft 427 kts 167°
2026-05-01 07:45 39.02113 13.05456 20165 ft 422 kts 167°
2026-05-01 07:45 38.99317 13.06514 19614 ft 415 kts 167°
2026-05-01 07:45 38.96572 13.07554 19081 ft 408 kts 167°
2026-05-01 07:45 38.93870 13.08576 18556 ft 401 kts 167°
2026-05-01 07:46 38.91215 13.09573 17989 ft 394 kts 168°
2026-05-01 07:46 38.88561 13.10101 17492 ft 379 kts 182°
2026-05-01 07:46 38.83621 13.08942 16520 ft 351 kts 209°
2026-05-01 07:47 38.81532 13.07458 16087 ft 337 kts 221°
2026-05-01 07:47 38.79669 13.05701 15693 ft 329 kts 223°
2026-05-01 07:47 38.77840 13.03975 15308 ft 326 kts 223°
2026-05-01 07:47 38.76016 13.02253 14911 ft 325 kts 222°
2026-05-01 07:48 38.72380 12.98828 14167 ft 323 kts 222°
2026-05-01 07:48 38.70582 12.97134 13832 ft 320 kts 222°
2026-05-01 07:48 38.68796 12.95450 13439 ft 318 kts 222°
2026-05-01 07:49 38.67016 12.93771 13039 ft 317 kts 222°
2026-05-01 07:49 38.63478 12.90447 12236 ft 314 kts 221°
2026-05-01 07:49 38.61719 12.88800 11843 ft 312 kts 221°
2026-05-01 07:50 38.59970 12.87163 11450 ft 311 kts 221°
2026-05-01 07:50 38.56500 12.83905 10635 ft 308 kts 221°
2026-05-01 07:50 38.54784 12.82294 10359 ft 302 kts 221°
2026-05-01 07:51 38.53108 12.80726 10120 ft 295 kts 221°
2026-05-01 07:51 38.51464 12.79184 9997 ft 292 kts 221°
2026-05-01 07:51 38.49814 12.77633 9464 ft 297 kts 220°
2026-05-01 07:52 38.46535 12.74569 8526 ft 288 kts 219°
2026-05-01 07:52 38.44914 12.73184 8315 ft 277 kts 210°
2026-05-01 07:52 38.43101 12.72440 8004 ft 272 kts 189°
2026-05-01 07:53 38.39430 12.73213 7479 ft 266 kts 154°
2026-05-01 07:53 38.37792 12.74192 7349 ft 254 kts 155°
2026-05-01 07:53 38.36219 12.75114 7226 ft 244 kts 155°
2026-05-01 07:53 38.34700 12.76001 7102 ft 238 kts 155°
2026-05-01 07:54 38.31724 12.77746 6861 ft 234 kts 155°
2026-05-01 07:55 38.27284 12.80375 5904 ft 237 kts 154°
2026-05-01 07:55 38.24268 12.82156 5144 ft 239 kts 155°
2026-05-01 07:56 38.19776 12.84595 3959 ft 229 kts 155°
2026-05-01 07:56 38.16986 12.86080 3659 ft 203 kts 155°
2026-05-01 07:57 38.15694 12.86773 3583 ft 200 kts 155°
2026-05-01 07:57 38.13143 12.88151 3404 ft 199 kts 155°
2026-05-01 07:58 38.11578 12.90692 3174 ft 190 kts 88°
2026-05-01 07:58 38.12409 12.93776 2574 ft 185 kts 63°
2026-05-01 07:59 38.13417 12.96743 2052 ft 179 kts 65°
2026-05-01 07:59 38.14353 12.99532 1607 ft 159 kts 64°
2026-05-01 08:00 38.15835 13.03908 836 ft 125 kts 65°
2026-05-01 08:01 38.16842 13.06902 386 ft 121 kts 65°
2026-05-01 08:01 38.17173 13.07881 242 ft 121 kts 63°
2026-05-01 08:01 38.17499 13.08854 74 ft 118 kts 64°
2026-05-01 08:02 38.17948 13.10185 53 ft 39 kts 67°
2026-05-01 08:02 38.18041 13.10463 53 ft 29 kts 67°
2026-05-01 08:03 38.18168 13.10717 50 ft 10 kts 312°
2026-05-01 08:03 38.18177 13.10631 52 ft 10 kts 278°
2026-05-01 08:03 38.18197 13.10434 53 ft 13 kts 277°
2026-05-01 08:04 38.18334 13.10314 53 ft 9 kts 336°
2026-05-01 08:04 38.18389 13.10409 52 ft 2 kts 67°